Wichita, KS

3:44 PM CDT on August 18, 2017 (GMT -0500)
Wichita Eisenhower National Airport

Weather History for KICT - October, 2014

Change the Weather History Date:

Sunday, October 19, 2014

  Actual Average Record
Temperature  
Mean Temperature 59 °F 57 °F  
Max Temperature 74 °F 69 °F 86 °F (1979)
Min Temperature 44 °F 46 °F 23 °F (1917)
Degree Days  
Heating Degree Days 6 8  
Month to date heating degree days 91 116  
Since 1 July heating degree days 112 159  
Cooling Degree Days 0 1  
Month to date cooling degree days 44 32  
Year to date cooling degree days 1815 1681  
Growing Degree Days 10 (Base 50)    
Moisture  
Dew Point 47 °F    
Average Humidity 67    
Maximum Humidity 86    
Minimum Humidity 47    
Precipitation  
Precipitation T in 0.09 in 0.67 in (1908)
Month to date precipitation 1.38 1.84  
Year to date precipitation 23.83 29.07  
Snow  
Snow 0.00 in 0.00 in 0.00 in (2007)
Month to date snowfall 0.0 0.0  
Since 1 July snowfall 0.0 0.0  
Since 1 September snowfall 0.0 0.0  
Snow Depth 0.00 in    
Sea Level Pressure  
Sea Level Pressure 30.08 in    
Wind  
Wind Speed 8 mph (SSE)    
Max Wind Speed 20 mph    
Max Gust Speed 23 mph    
Visibility 10 miles    
Events      
T = Trace of Precipitation, MM = Missing Value Source: NWS Daily Summary

Daily Weather History Graph

Daily Weather History Graph

Search for Another Location

Airport or City:

Trip Planner

Search our weather history database for the weather conditions in past years. The results will help you decide how hot, cold, wet, or windy it might be!

Date:

Astronomy

Oct. 19, 2014 Rise Set
Actual Time 7:41 AM CDT 6:46 PM CDT
Civil Twilight 7:15 AM CDT 7:13 PM CDT
Nautical Twilight 6:44 AM CDT 7:43 PM CDT
Astronomical Twilight 6:14 AM CDT 8:14 PM CDT
Moon 3:40 AM CDT (10/19) 4:35 PM CDT (10/19)
Length of Visible Light 11h 58m
Length of Day
11h 05m
Waning Crescent, 16% of the Moon is Illuminated
Oct 19
Waning Crescent
Oct 23
New
Oct 30
First Quarter
Nov 6
Full
Nov 14
Last Quarter

Hourly Weather History & Observations

Time (CDT) Temp. Windchill Dew Point Humidity Pressure Visibility Wind Dir Wind Speed Gust Speed Precip Events Conditions
12:53 AM 51.1 °F - 43.0 °F 74% 30.15 in 10.0 mi SE 4.6 mph - N/A   Mostly Cloudy
1:53 AM 48.9 °F - 43.0 °F 80% 30.16 in 10.0 mi South 3.5 mph - N/A   Scattered Clouds
2:53 AM 48.0 °F - 42.1 °F 80% 30.16 in 10.0 mi Calm Calm - N/A   Scattered Clouds
3:53 AM 46.9 °F - 41.0 °F 80% 30.17 in 10.0 mi Calm Calm - N/A   Scattered Clouds
4:53 AM 46.9 °F - 42.1 °F 83% 30.16 in 10.0 mi South 3.5 mph - N/A   Mostly Cloudy
5:53 AM 48.9 °F - 44.1 °F 83% 30.15 in 10.0 mi SE 4.6 mph - N/A   Mostly Cloudy
6:53 AM 46.9 °F - 42.1 °F 83% 30.15 in 10.0 mi SE 4.6 mph - N/A   Scattered Clouds
7:53 AM 46.0 °F 44.8 °F 42.1 °F 86% 30.15 in 10.0 mi SSE 3.5 mph - N/A   Scattered Clouds
8:53 AM 50.0 °F - 45.0 °F 83% 30.16 in 10.0 mi South 4.6 mph - N/A   Scattered Clouds
9:53 AM 55.9 °F - 46.0 °F 69% 30.15 in 10.0 mi South 11.5 mph - N/A   Scattered Clouds
10:53 AM 59.0 °F - 46.0 °F 62% 30.14 in 10.0 mi South 12.7 mph - N/A   Mostly Cloudy
11:53 AM 62.1 °F - 46.0 °F 56% 30.12 in 10.0 mi South 15.0 mph - 0.00 in   Mostly Cloudy
12:53 PM 64.9 °F - 46.0 °F 50% 30.10 in 10.0 mi South 13.8 mph - N/A   Mostly Cloudy
1:53 PM 68.0 °F - 48.0 °F 49% 30.06 in 10.0 mi South 13.8 mph - N/A   Scattered Clouds
2:53 PM 70.0 °F - 48.9 °F 47% 30.02 in 10.0 mi South 13.8 mph - N/A   Scattered Clouds
3:53 PM 71.1 °F - 51.1 °F 49% 30.00 in 10.0 mi South 9.2 mph - N/A   Mostly Cloudy
4:53 PM 72.0 °F - 51.1 °F 48% 29.99 in 10.0 mi South 15.0 mph 21.9 mph N/A   Overcast
5:53 PM 70.0 °F - 52.0 °F 53% 29.99 in 10.0 mi SSE 9.2 mph - N/A   Mostly Cloudy
6:53 PM 68.0 °F - 54.0 °F 61% 29.99 in 10.0 mi SSE 8.1 mph - N/A   Mostly Cloudy
7:53 PM 66.0 °F - 54.0 °F 65% 30.00 in 10.0 mi SE 9.2 mph - N/A   Scattered Clouds
8:53 PM 64.0 °F - 54.0 °F 70% 29.99 in 10.0 mi SSE 9.2 mph - N/A   Scattered Clouds
9:53 PM 64.0 °F - 54.0 °F 70% 30.00 in 10.0 mi SSE 9.2 mph - N/A   Partly Cloudy
10:53 PM 61.0 °F - 54.0 °F 78% 30.01 in 10.0 mi South 6.9 mph - N/A   Partly Cloudy
11:53 PM 60.1 °F - 53.1 °F 78% 30.00 in 10.0 mi South 8.1 mph - N/A   Scattered Clouds